Weather Service Report


901 
ASUS44 KOUN 011810
RWROK 

WEATHER ROUNDUP FOR OKLAHOMA
NATIONAL WEATHER SERVICE NORMAN OK
100 PM CDT TUE SEP 01 2015

NOTE: "FAIR" INDICATES FEW OR NO CLOUDS BELOW 12,000 FEET WITH NO
      SIGNIFICANT WEATHER AND/OR OBSTRUCTIONS TO VISIBILITY.

OKZ001>007-009>012-014-015-017-011900-
NORTHWEST OKLAHOMA AND THE PANHANDLE
  
CITY           SKY/WX    TMP DP  RH WIND       PRES   REMARKS
GAGE           SUNNY     93  59  31 S16G25    30.00F HX  92           
6HR MIN TEMP:  70; 6HR MAX TEMP:  94;                                

GUYMON         MOSUNNY   86  57  37 S12       30.00F                  
ENID/WOODRING  SUNNY     93  64  38 S12       29.99F HX  95           
$$

OKZ016-021>023-033>039-044-045-011900-
SOUTHWEST OKLAHOMA
  
CITY           SKY/WX    TMP DP  RH WIND       PRES   REMARKS
LAWTON/REGL    SUNNY     92  63  38 S14G20    30.01F HX  93           
6HR MIN TEMP:  70; 6HR MAX TEMP:  93;                                

LAWTON/FT SILL SUNNY     92  67  42 S14G20    30.00F HX  95           
FREDERICK      SUNNY     93  65  39 S16       29.99F HX  95           
CLINTON        LGT RAIN  90  62  39 S16       30.04F HX  90           
HOBART         SUNNY     93  64  38 S14       30.02F HX  94           
ALTUS AFB      SUNNY     92  64  39 S14       30.00F HX  94           
$$

OKZ018>020-024>031-011900-
CENTRAL OKLAHOMA
  
CITY           SKY/WX    TMP DP  RH WIND       PRES   REMARKS
OKLAHOMA CITY  SUNNY     90  67  46 SW15      30.02F HX  93           
6HR MIN TEMP:  67; 6HR MAX TEMP:  90;                                

OKC/WILEY POST SUNNY     90  66  45 S14       30.02F HX  92           
OKC/TINKER AFB SUNNY     90  67  47 S14G20    30.02F HX  93           
STILLWATER     SUNNY     91  68  46 S14       30.01F HX  95           
GUTHRIE        SUNNY     93  64  38 S12       30.01F HX  94           
$$

OKZ008-013-054>072-011900-
NORTHEAST OKLAHOMA
  
CITY           SKY/WX    TMP DP  RH WIND       PRES   REMARKS
TULSA          MOSUNNY   88  71  57 SE12      30.02F HX  94           
6HR MIN TEMP:  72; 6HR MAX TEMP:  88;                                

TULSA/JONES    MOSUNNY   89  69  51 S12G17    30.03F HX  93           
PONCA CITY     SUNNY     89  68  49 S9        30.00F HX  93           
BARTLESVILLE   SUNNY     88  69  53 S8        30.03F HX  92           
MUSKOGEE       PTSUNNY   85  71  63 S10       30.07S HX  90           
$$

OKZ032-040>043-046>053-073>077-011900-
SOUTH CENTRAL/SOUTHEAST OKLAHOMA
  
CITY           SKY/WX    TMP DP  RH WIND       PRES   REMARKS
ARDMORE/DWNTWN SUNNY     90  61  37 SE7       30.02F                  
MCALESTER      SUNNY     88  68  51 S12       30.06F HX  91           
$$


Return to Home page


Western Regional Climate Center, wrcc@dri.edu